Probability
0 0 0 0 0 0 0 0 0 0 0 0 0 0 0 0 0 0 0 0 0 0 0 0 0 0 0 0 0 0 0 0 0 0 0 0 0 0 0 0 0 0 0
4 3 1 0 0 0 0 0 0 0 0 0 0 0 0 0 0 0 0 0 0 0 0 0 0 0 0 0 0 0 0 0 0 0 0 0 0 0 0 0 0 0 0
11 9 4 1 0 0 0 0 0 0 0 0 0 0 0 0 0 0 0 0 0 0 0 0 0 0 0 0 0 0 0 0 0 0 0 0 0 0 0 0 0 0 0
17 13 7 3 1 0 0 0 0 0 0 0 0 0 0 0 0 0 0 0 0 0 0 0 0 0 0 0 0 0 0 0 0 0 0 0 0 0 0 0 0 0 0
22 15 8 5 3 1 0 0 0 0 0 0 0 0 0 0 0 0 0 0 0 0 0 0 0 0 0 0 0 0 0 0 0 0 0 0 0 0 0 0 0 0 0
20 13 7 5 3 1 0 0 0 0 0 0 0 0 0 0 0 0 0 0 0 0 0 0 0 0 0 0 0 0 0 0 0 0 0 0 0 0 0 0 0 0 0
7 6 4 2 1 1 0 0 0 0 0 0 0 0 0 0 0 0 0 0 0 0 0 0 0 0 0 0 0 0 0 0 0 0 0 0 0 0 0 0 0 0 0
0 1 1 0 0 0 0 0 0 0 0 0 0 0 0 0 0 0 0 0 0 0 0 0 0 0 0 0 0 0 0 0 0 0 0 0 0 0 0 0 0 0 0
0 0 0 0 0 0 0 0 0 0 0 0 0 0 0 0 0 0 0 0 0 0 0 0 0 0 0 0 0 0 0 0 0 0 0 0 0 0 0 0 0 0 0
0 0 0 0 0 0 0 0 0 0 0 0 0 0 0 0 0 0 0 0 0 0 0 0 0 0 0 0 0 0 0 0 0 0 0 0 0 0 0 0 0 0 0
0 0 0 0 0 0 0 0 0 0 0 0 0 0 0 0 0 0 0 0 0 0 0 0 0 0 0 0 0 0 0 0 0 0 0 0 0 0 0 0 0 0 0
0 0 0 0 0 0 0 0 0 0 0 0 0 0 0 0 0 0 0 0 0 0 0 0 0 0 0 0 0 0 0 0 0 0 0 0 0 0 0 0 0 0 0
0 0 0 0 0 0 0 0 0 0 0 0 0 0 0 0 0 0 0 0 0 0 0 0 0 0 0 0 0 0 0 0 0 0 0 0 0 0 0 0 0 0 0
0 0 0 0 0 0 0 0 0 0 0 0 0 0 0 0 0 0 0 0 0 0 0 0 0 0 0 0 0 0 0 0 0 0 0 0 0 0 0 0 0 0 0
0 0 0 0 0 0 0 0 0 0 0 0 0 0 0 0 0 0 0 0 0 0 0 0 0 0 0 0 0 0 0 0 0 0 0 0 0 0 0 0 0 0 0
0 0 0 0 0 0 0 0 0 0 0 0 0 0 0 0 0 0 0 0 0 0 0 0 0 0 0 0 0 0 0 0 0 0 0 0 0 0 0 0 0 0 0
0 0 0 0 0 0 0 0 0 0 0 0 0 0 0 0 0 0 0 0 0 0 0 0 0 0 0 0 0 0 0 0 0 0 0 0 0 0 0 0 0 0 0
0 0 0 0 0 0 0 0 0 0 0 0 0 0 0 0 0 0 0 0 0 0 0 0 0 0 0 0 0 0 0 0 0 0 0 0 0 0 0 0 0 0 0
0 0 0 0 0 0 0 0 0 0 0 0 0 0 0 0 0 0 0 0 0 0 0 0 0 0 0 0 0 0 0 0 0 0 0 0 0 0 0 0 0 0 0
0 0 0 0 0 0 0 0 0 0 0 0 0 0 0 0 0 0 0 0 0 0 0 0 0 0 0 0 0 0 0 0 0 0 0 0 0 0 0 0 0 0 0
0 0 0 0 0 0 0 0 0 0 0 0 0 0 0 0 0 0 0 0 0 0 0 0 0 0 0 0 0 0 0 0 0 0 0 0 0 0 0 0 0 0 0
0 0 0 0 0 0 0 0 0 0 0 0 0 0 0 0 0 0 0 0 0 0 0 0 0 0 0 0 0 0 0 0 0 0 0 0 0 0 0 0 0 0 0
0 0 0 0 0 0 0 0 0 0 0 0 0 0 0 0 0 0 0 0 0 0 0 0 0 0 0 0 0 0 0 0 0 0 0 0 0 0 0 0 0 0 0
0 0 0 0 0 0 0 0 0 0 0 0 0 0 0 0 0 0 0 0 0 0 0 0 0 0 0 0 0 0 0 0 0 0 0 0 0 0 0 0 0 0 0
0 0 0 0 0 0 0 0 0 0 0 0 0 0 0 0 0 0 0 0 0 0 0 0 0 0 0 0 0 0 0 0 0 0 0 0 0 0 0 0 0 0 0
0 0 0 0 0 0 0 0 0 0 0 0 0 0 0 0 0 0 0 0 0 0 0 0 0 0 0 0 0 0 0 0 0 0 0 0 0 0 0 0 0 0 0
Wind_Speed
5 4 4 4 4 4 4 4 4 3 3 4 3 3 3 3 2 2 2 2 3 3 4 5 7 6 6 6 5 4 3 3 4 3 3 3 6 6 7 5 5 6 6
5 4 5 4 5 5 4 4 4 4 4 4 4 3 3 4 3 3 3 2 2 3 3 4 5 5 6 6 6 6 4 3 3 3 2 2 4 5 6 6 5 6 5
5 5 4 3 4 5 5 5 5 5 4 4 4 4 4 4 4 4 3 3 3 3 3 4 4 6 6 5 6 6 5 3 2 2 2 1 1 2 3 3 4 3 5
5 5 4 3 4 4 4 5 5 5 5 5 5 5 5 5 5 4 4 3 3 2 3 3 3 5 6 7 6 7 6 5 4 2 1 1 1 1 3 3 3 4 4
6 5 2 3 3 4 4 4 4 5 6 5 5 5 5 4 5 6 5 5 4 3 3 2 2 4 6 6 5 6 7 5 4 3 2 1 1 2 3 4 5 3 4
5 4 1 1 1 2 3 3 3 4 4 4 5 5 5 6 8 11 8 5 5 5 4 4 3 4 6 8 9 10 9 6 5 3 2 2 3 3 3 4 4 3 4
8 6 5 3 4 4 3 2 1 2 2 4 5 5 6 7 10 11 13 7 6 6 5 5 5 6 7 4 7 10 10 10 9 6 5 5 4 5 4 5 5 6 6
8 7 6 5 5 5 5 4 3 2 1 2 4 5 5 7 10 11 12 7 5 5 6 6 6 6 7 7 6 6 6 8 10 8 7 8 8 7 6 7 7 6 3
6 5 5 5 5 5 5 4 3 2 2 1 2 3 4 5 7 8 7 4 3 4 4 5 6 7 10 11 8 7 7 6 9 13 13 12 13 13 8 4 4 4 4
4 4 4 4 4 4 4 4 3 2 2 2 2 2 1 2 3 5 6 3 3 2 2 2 4 6 9 10 9 8 8 7 5 5 7 9 7 7 8 6 5 4 3
3 4 4 4 4 4 4 4 3 3 4 4 4 4 4 3 4 2 3 3 3 2 1 1 2 3 5 7 9 7 9 6 4 4 2 2 1 1 1 2 3 4 4
3 4 4 5 5 5 5 5 5 5 6 5 5 5 4 5 6 5 2 2 3 2 2 2 2 2 2 3 4 5 6 5 3 3 2 1 1 1 0 1 1 2 2
3 3 2 4 5 5 6 6 5 5 5 4 4 4 4 4 6 10 7 2 1 1 2 3 3 3 3 2 4 5 5 3 3 3 2 1 1 1 1 1 1 1 0
3 1 1 2 3 4 4 4 4 4 4 4 4 4 4 4 4 5 5 3 2 1 1 1 3 3 2 2 3 3 2 2 3 2 2 1 1 1 1 1 1 0 0
2 1 0 1 1 2 3 4 4 4 3 3 3 3 4 4 6 8 4 3 2 1 1 1 1 1 1 1 1 1 1 2 2 2 2 1 1 1 1 1 1 1 1
1 0 1 1 0 1 1 2 4 3 5 5 5 4 3 4 7 7 7 5 4 0 2 1 1 1 1 1 2 1 1 1 1 1 1 1 1 1 1 1 2 2 2
2 1 0 1 1 0 1 1 0 2 2 4 5 6 5 6 7 6 6 6 6 4 3 2 2 2 2 2 2 1 1 0 1 1 1 1 1 1 1 2 2 2 3
3 1 1 1 1 1 0 1 1 0 2 3 4 6 7 7 7 7 6 5 5 5 3 3 3 3 3 3 2 2 2 2 2 1 1 1 1 1 1 2 2 2 3
3 1 1 1 1 1 2 2 2 2 2 2 3 4 7 7 8 10 7 4 4 4 4 4 4 4 3 3 3 3 3 3 3 2 2 2 1 1 1 2 2 3 3
2 3 2 2 2 2 2 2 2 2 2 2 3 3 4 4 5 5 5 4 4 4 4 4 4 4 4 4 3 3 3 3 3 3 2 2 2 1 2 2 2 2 2
3 2 3 2 2 2 2 2 2 2 2 2 2 3 3 3 3 4 4 4 4 4 3 4 4 4 4 3 3 3 4 3 3 3 3 3 3 2 2 2 3 3 3
4 3 2 2 2 2 2 2 3 3 2 2 2 3 6 4 3 4 4 4 4 4 3 3 4 4 4 4 4 4 4 4 4 4 4 3 3 3 3 3 3 3 3
4 4 2 2 2 3 3 2 3 3 2 2 2 2 3 3 3 4 4 4 4 4 4 4 4 4 4 4 4 4 3 4 4 4 4 4 3 3 3 3 3 3 3
5 4 4 3 2 2 3 3 2 2 2 2 2 2 2 2 3 4 3 3 4 4 4 4 4 5 6 4 3 3 3 4 4 3 4 3 3 3 3 2 2 2 2
5 4 4 3 3 3 3 3 3 3 3 3 2 2 2 3 3 3 3 3 4 5 5 5 4 4 6 6 6 5 7 7 5 4 3 2 2 3 3 2 2 2 2
5 4 4 3 3 3 4 4 3 3 3 2 3 3 3 3 3 3 3 3 3 4 4 4 5 6 6 5 6 8 9 8 8 7 4 2 3 3 3 3 3 3 3
Wind_Direction
181 177 167 165 162 159 168 176 173 172 172 171 171 169 173 175 173 172 190 193 209 223 223 216 216 198 195 189 171 160 171 176 215 239 214 188 176 179 177 184 188 195 200
178 164 163 157 157 163 178 187 183 181 187 189 186 185 192 195 193 193 207 213 225 233 230 218 218 205 197 185 174 166 164 174 190 213 208 177 186 185 173 182 192 198 200
162 159 153 164 177 186 194 200 198 195 199 201 197 203 208 206 204 204 204 214 232 243 238 229 223 204 194 182 172 165 158 161 168 181 191 173 158 142 144 189 194 201 207
153 151 156 195 215 215 214 213 212 206 206 211 211 215 216 213 208 204 200 205 221 237 237 234 225 208 197 184 177 169 159 154 154 148 149 163 171 143 141 171 197 212 216
136 136 170 235 237 236 236 232 228 219 219 219 219 227 227 218 215 204 198 200 204 218 230 232 229 218 206 190 178 169 161 156 148 139 150 159 187 167 195 193 207 203 224
105 107 101 331 306 266 248 239 235 233 235 227 224 223 224 228 223 209 195 194 196 206 219 227 235 231 220 207 192 177 166 160 153 150 169 204 224 219 207 197 193 181 234
69 62 55 45 35 19 13 8 294 263 247 237 233 224 223 231 231 216 204 190 196 206 212 215 227 227 220 212 206 198 192 190 181 172 192 216 226 221 205 207 201 205 218
62 56 47 43 37 26 26 20 358 325 270 244 239 230 229 239 235 224 209 194 198 208 213 215 222 234 218 206 207 212 213 210 207 206 211 221 229 227 213 215 215 221 239
54 48 41 42 37 27 18 2 350 349 342 307 268 236 227 253 248 227 191 175 198 214 222 225 224 230 234 213 200 213 225 232 229 224 223 228 233 236 225 208 196 189 226
48 44 35 35 32 19 4 353 348 354 356 360 10 4 326 291 281 235 184 164 189 214 241 262 245 233 235 214 200 205 220 230 218 218 225 234 237 242 228 207 197 193 205
40 44 32 21 15 11 4 2 4 15 26 31 36 29 30 19 358 337 178 158 180 190 209 261 276 257 235 218 200 203 218 209 193 193 191 188 180 198 208 198 198 200 208
52 52 35 21 18 20 27 26 25 32 38 31 33 28 19 14 18 15 34 155 167 175 205 230 245 216 179 170 177 190 185 162 143 143 148 164 176 197 187 168 186 200 210
72 64 41 36 34 31 38 36 32 30 36 29 29 24 7 5 9 16 13 5 200 197 225 227 212 169 128 114 125 127 121 121 128 133 152 176 182 166 129 105 75 75 39
108 113 56 58 49 40 37 35 40 28 24 25 22 11 356 354 359 356 352 351 353 358 13 96 110 103 92 113 108 102 109 135 139 146 157 160 142 131 138 151 161 118 355
129 151 65 64 79 65 53 39 37 38 26 19 6 353 351 347 339 337 334 330 313 260 120 85 93 130 138 122 105 107 109 114 120 134 145 153 164 173 192 179 180 182 211
129 218 321 341 51 119 111 63 40 36 31 33 23 8 348 342 341 357 4 1 357 62 116 119 146 155 156 149 133 102 93 125 149 155 158 173 188 201 214 206 203 214 236
135 150 51 2 359 221 197 191 316 356 3 16 15 15 13 2 6 13 25 34 35 63 73 68 63 67 71 80 89 92 78 52 123 136 166 202 210 218 222 230 229 240 255
142 133 117 39 17 24 88 161 166 86 14 344 338 347 357 6 16 29 46 56 48 46 56 63 57 57 60 62 64 58 47 37 39 36 20 349 305 259 253 255 249 245 254
153 151 90 48 60 75 86 85 78 75 56 6 350 349 357 17 38 43 51 62 69 59 53 54 52 51 50 48 45 45 44 38 29 26 17 2 349 324 281 272 269 270 261
167 171 133 88 75 89 98 99 91 85 68 41 21 358 353 29 41 34 37 47 60 60 58 57 49 48 44 42 40 41 41 35 28 24 7 353 339 321 294 287 279 273 264
163 159 125 98 91 107 117 124 123 115 98 62 15 5 42 62 56 49 45 43 48 54 57 57 52 45 40 39 39 42 42 31 19 5 353 343 334 320 307 297 291 284 281
154 154 145 135 119 110 117 128 132 128 117 87 30 31 56 63 61 58 55 52 50 51 52 58 55 43 35 35 32 31 26 16 1 350 339 331 326 319 310 301 298 295 291
151 153 147 138 123 113 111 121 132 136 128 106 83 63 59 64 64 64 64 58 52 50 46 48 51 42 37 36 34 28 12 352 334 325 322 320 321 319 314 310 310 312 314
147 153 153 148 133 124 129 133 136 139 134 123 108 96 89 84 77 73 70 67 63 58 54 50 49 45 37 28 17 8 353 332 317 309 313 315 319 322 326 329 329 330 328
143 148 151 153 150 146 143 141 140 136 134 133 129 119 108 97 87 80 75 72 74 70 60 48 36 30 24 19 9 356 347 349 349 333 315 325 343 347 346 345 341 334 328
147 150 150 150 151 152 153 155 155 151 144 139 135 132 125 111 98 90 86 78 72 67 60 45 35 30 16 3 356 357 1 10 17 19 15 13 21 15 4 357 356 353 341